Weather past 2 weeks in Cayenne, French Guiana

Now
77 °F

Passing clouds.


Feels Like: 78 °F
Forecast: 75 / 83 °F
Wind: No wind

Location: Cayenne / Rochambeau

Current Time: Dec 19, 2014 at 10:09:59 PM

Latest Report: Dec 19, 2014 at 9:30 PM


Visibility: N/A

Pressure: 29.86 "Hg

Humidity: 89%

Dew point: 73 °F

Location of CayenneLocation

Historic Weather in Cayenne — Graph

°F

Cayenne temperature yesterday

Maximum temperature yesterday: 88 °F (at 1:30 PM)
Minimum temperature yesterday: 73 °F (at 3:30 AM)
Average temperature yesterday: 79 °F

Past Weeks' High & Low Weather Summary

 TemperatureHumidityPressure
High88 °F (Dec 5, 11:30 AM)100% (Dec 6, 6:00 AM)29.95 "Hg (Dec 6, 6:00 AM)
Low72 °F (Dec 6, 6:00 AM)55% (Dec 7, 2:30 PM)29.77 "Hg (Dec 9, 3:30 PM)
Average79 °F83%29.86 "Hg
* Reported Dec 4 9:00 PM — Dec 19 9:00 PM, Cayenne, Weather by CustomWeather, © 2014

Note: Actual official high and low records may vary slightly from our data, if they occured in-between our weather recording intervals... More about our weather records

Advertising

Cayenne weather history for previous 24 hours

 ConditionsComfort  
Time TempWeatherWind HumidityBarometerVisibility
9:00 PM
Dec 19
77 °FPassing clouds.2 mph89%29.86 "HgN/A
8:30 PM79 °FWarm.3 mph84%29.86 "HgN/A
8:00 PM79 °FWarm.3 mph84%29.86 "HgN/A
7:30 PM81 °FWarm.2 mph79%29.83 "HgN/A
7:00 PM81 °FWarm.7 mph79%29.83 "HgN/A
6:30 PM81 °FWarm.8 mph79%29.83 "HgN/A
6:00 PM82 °FPartly sunny.10 mph74%29.83 "HgN/A
5:30 PM84 °FCloudy.12 mph70%29.83 "HgN/A
5:00 PM84 °FMostly cloudy.10 mph70%29.80 "HgN/A
4:30 PM86 °FBroken clouds.9 mph66%29.80 "HgN/A
4:00 PM84 °FMore clouds than sun.12 mph70%29.80 "HgN/A
3:30 PM88 °FBroken clouds.12 mph62%29.80 "HgN/A
3:00 PM88 °FBroken clouds.12 mph62%29.80 "HgN/A
2:30 PM86 °FOvercast.12 mph62%29.83 "HgN/A
2:00 PM88 °FPartly sunny.13 mph62%29.83 "HgN/A
1:30 PM88 °FWarm.14 mph55%29.86 "HgN/A
1:00 PM88 °FPartly sunny.13 mph59%29.86 "HgN/A
12:30 PM88 °FPassing clouds.13 mph62%29.86 "HgN/A
12:00 PM88 °FPassing clouds.13 mph59%29.89 "HgN/A
11:30 AM88 °FPassing clouds.13 mph55%29.89 "HgN/A
11:00 AM86 °FPartly sunny.14 mph66%29.89 "HgN/A
10:30 AM86 °FWarm.12 mph66%29.89 "HgN/A
10:00 AM86 °FPassing clouds.9 mph70%29.89 "HgN/A
9:30 AM82 °FPassing clouds.7 mph79%29.89 "HgN/A
9:00 AM82 °FPassing clouds.3 mph79%29.89 "HgN/A
8:30 AM81 °FScattered clouds.No wind89%29.86 "HgN/A
8:00 AM77 °FBroken clouds.No wind94%29.86 "HgN/A
7:30 AM75 °FBroken clouds.2 mph94%29.86 "HgN/A
7:00 AM75 °FBroken clouds.No wind94%29.83 "HgN/A
6:30 AM75 °FPassing clouds.5 mph94%29.83 "HgN/A
6:00 AM75 °FLight rain. Partly cloudy.No wind94%29.83 "Hg5 mi
5:30 AM73 °FPassing clouds.2 mph100%29.83 "HgN/A
5:00 AM73 °FLight rain. Passing clouds.No wind100%29.83 "HgN/A
4:30 AM73 °FPartly cloudy.2 mph94%29.83 "HgN/A
4:00 AM73 °FPartly cloudy.No wind94%29.83 "HgN/A
3:30 AM73 °FPassing clouds.2 mph100%29.80 "HgN/A
3:00 AM73 °FPassing clouds.No wind94%29.83 "HgN/A
2:30 AM75 °FPassing clouds.No wind94%29.83 "HgN/A
2:00 AM75 °FPartly cloudy.1 mph94%29.83 "HgN/A
1:30 AM73 °FPassing clouds.2 mph94%29.83 "HgN/A
1:00 AM73 °FPassing clouds.1 mph94%29.86 "HgN/A
12:30 AM75 °FPassing clouds.No wind94%29.86 "HgN/A
12:00 AM75 °FMild.No wind94%29.86 "HgN/A
11:30 PM
Dec 18
73 °FMild.1 mph94%29.86 "HgN/A
11:00 PM75 °FPassing clouds.2 mph94%29.86 "HgN/A
10:30 PM75 °FMild.No wind94%29.86 "HgN/A
10:00 PM75 °FPassing clouds.2 mph94%29.86 "HgN/A
Weather by CustomWeather, © 2014

See weather overviewHow to use our weather pages